| Känerkinden Datum - Zeit | Temperatur | Taupunkt | Feuchte | Solar | Wind | aus Richtung | Windböen | Luftdruck (QFF) | Regen | Regenstärke | Trend |
| 06.09.2026 - 00.00Uhr | 15.6 °C | 13.4 °C | 87 % | 0.0 W/m² | 0.0 km/h | Ost-NO | 0.0 km/h | 1023.4 hPa | 0.0 mm | 0.0 mm/h | sonnig |
| 06.09.2026 - 00.05Uhr | 15.6 °C | 13.4 °C | 87 % | 0.0 W/m² | 0.0 km/h | Ost-NO | 0.0 km/h | 1023.4 hPa | 0.0 mm | 0.0 mm/h | wechselhaft |
| 06.09.2026 - 00.10Uhr | 15.7 °C | 13.5 °C | 87 % | 0.0 W/m² | 0.0 km/h | Ost-NO | 0.0 km/h | 1023.5 hPa | 0.0 mm | 0.0 mm/h | wechselhaft |
| 06.09.2026 - 00.15Uhr | 15.7 °C | 13.5 °C | 87 % | 0.0 W/m² | 2.2 km/h | Ost-SO | 6.5 km/h | 1023.4 hPa | 0.0 mm | 0.0 mm/h | wechselhaft |
| 06.09.2026 - 00.20Uhr | 15.6 °C | 13.4 °C | 87 % | 0.0 W/m² | 0.0 km/h | Ost-SO | 0.0 km/h | 1023.4 hPa | 0.0 mm | 0.0 mm/h | wechselhaft |
| 06.09.2026 - 00.25Uhr | 15.4 °C | 13.2 °C | 87 % | 0.0 W/m² | 0.0 km/h | Ost-SO | 0.0 km/h | 1023.4 hPa | 0.0 mm | 0.0 mm/h | wechselhaft |
| 06.09.2026 - 00.30Uhr | 15.4 °C | 13.3 °C | 88 % | 0.0 W/m² | 2.2 km/h | Nordosten | 4.7 km/h | 1023.5 hPa | 0.0 mm | 0.0 mm/h | wechselhaft |
| 06.09.2026 - 00.35Uhr | 15.7 °C | 13.6 °C | 87 % | 0.0 W/m² | 1.4 km/h | Nordosten | 4.7 km/h | 1023.5 hPa | 0.0 mm | 0.0 mm/h | wechselhaft |
| 06.09.2026 - 00.40Uhr | 15.7 °C | 13.5 °C | 87 % | 0.0 W/m² | 0.0 km/h | Nordosten | 0.0 km/h | 1023.4 hPa | 0.0 mm | 0.0 mm/h | wechselhaft |
| 06.09.2026 - 00.45Uhr | 15.7 °C | 13.5 °C | 87 % | 0.0 W/m² | 2.5 km/h | Osten | 4.7 km/h | 1023.5 hPa | 0.0 mm | 0.0 mm/h | wechselhaft |
| 06.09.2026 - 00.50Uhr | 15.7 °C | 13.4 °C | 86 % | 0.0 W/m² | 0.7 km/h | Osten | 3.2 km/h | 1023.5 hPa | 0.0 mm | 0.0 mm/h | wechselhaft |
| 06.09.2026 - 00.55Uhr | 15.5 °C | 13.3 °C | 87 % | 0.0 W/m² | 0.1 km/h | Osten | 1.4 km/h | 1023.5 hPa | 0.0 mm | 0.0 mm/h | wechselhaft |
| 06.09.2026 - 01.00Uhr | 15.5 °C | 13.3 °C | 87 % | 0.0 W/m² | 0.0 km/h | Osten | 0.0 km/h | 1023.5 hPa | 0.0 mm | 0.0 mm/h | wechselhaft |
| 06.09.2026 - 01.05Uhr | 15.4 °C | 13.2 °C | 87 % | 0.0 W/m² | 0.0 km/h | Osten | 0.0 km/h | 1023.4 hPa | 0.0 mm | 0.0 mm/h | wechselhaft |
| 06.09.2026 - 01.10Uhr | 15.3 °C | 13.1 °C | 87 % | 0.0 W/m² | 0.0 km/h | Osten | 0.0 km/h | 1023.4 hPa | 0.0 mm | 0.0 mm/h | wechselhaft |
| 06.09.2026 - 01.15Uhr | 15.2 °C | 13.2 °C | 88 % | 0.0 W/m² | 0.0 km/h | Osten | 0.0 km/h | 1023.4 hPa | 0.0 mm | 0.0 mm/h | wechselhaft |
| 06.09.2026 - 01.20Uhr | 15.2 °C | 13.2 °C | 88 % | 0.0 W/m² | 0.0 km/h | Osten | 0.0 km/h | 1023.5 hPa | 0.0 mm | 0.0 mm/h | wechselhaft |
| 06.09.2026 - 01.25Uhr | 15.2 °C | 13.2 °C | 88 % | 0.0 W/m² | 0.0 km/h | Osten | 0.0 km/h | 1023.5 hPa | 0.0 mm | 0.0 mm/h | wechselhaft |
| 06.09.2026 - 01.30Uhr | 15.1 °C | 13.1 °C | 88 % | 0.0 W/m² | 0.0 km/h | Osten | 0.0 km/h | 1023.6 hPa | 0.0 mm | 0.0 mm/h | wechselhaft |
| 06.09.2026 - 01.35Uhr | 14.9 °C | 12.9 °C | 88 % | 0.0 W/m² | 0.0 km/h | Osten | 0.0 km/h | 1023.6 hPa | 0.0 mm | 0.0 mm/h | wechselhaft |
| 06.09.2026 - 01.40Uhr | 14.7 °C | 12.7 °C | 88 % | 0.0 W/m² | 0.0 km/h | Osten | 0.0 km/h | 1023.6 hPa | 0.0 mm | 0.0 mm/h | wechselhaft |
| 06.09.2026 - 01.45Uhr | 14.7 °C | 12.9 °C | 89 % | 0.0 W/m² | 0.0 km/h | Osten | 0.0 km/h | 1023.5 hPa | 0.0 mm | 0.0 mm/h | wechselhaft |
| 06.09.2026 - 01.50Uhr | 14.9 °C | 13.1 °C | 89 % | 0.0 W/m² | 0.0 km/h | Osten | 0.0 km/h | 1023.5 hPa | 0.0 mm | 0.0 mm/h | wechselhaft |
| 06.09.2026 - 01.55Uhr | 15.0 °C | 13.0 °C | 88 % | 0.0 W/m² | 0.0 km/h | Osten | 0.0 km/h | 1023.4 hPa | 0.0 mm | 0.0 mm/h | wechselhaft |
| 06.09.2026 - 02.00Uhr | 14.7 °C | 12.7 °C | 88 % | 0.0 W/m² | 0.0 km/h | Osten | 0.0 km/h | 1023.5 hPa | 0.0 mm | 0.0 mm/h | wechselhaft |
| 06.09.2026 - 02.05Uhr | 14.7 °C | 12.8 °C | 89 % | 0.0 W/m² | 0.0 km/h | Osten | 0.0 km/h | 1023.4 hPa | 0.0 mm | 0.0 mm/h | wechselhaft |
| 06.09.2026 - 02.10Uhr | 14.5 °C | 12.5 °C | 88 % | 0.0 W/m² | 0.0 km/h | Osten | 0.0 km/h | 1023.4 hPa | 0.0 mm | 0.0 mm/h | wechselhaft |
| 06.09.2026 - 02.15Uhr | 14.3 °C | 12.6 °C | 90 % | 0.0 W/m² | 0.0 km/h | Osten | 0.0 km/h | 1023.4 hPa | 0.0 mm | 0.0 mm/h | wechselhaft |
| 06.09.2026 - 02.20Uhr | 14.3 °C | 12.6 °C | 89 % | 0.0 W/m² | 0.0 km/h | Osten | 0.0 km/h | 1023.3 hPa | 0.0 mm | 0.0 mm/h | wechselhaft |
| 06.09.2026 - 02.25Uhr | 14.2 °C | 12.5 °C | 89 % | 0.0 W/m² | 0.0 km/h | Osten | 0.0 km/h | 1023.3 hPa | 0.0 mm | 0.0 mm/h | wechselhaft |
| 06.09.2026 - 02.30Uhr | 14.1 °C | 12.3 °C | 89 % | 0.0 W/m² | 0.0 km/h | Osten | 0.0 km/h | 1023.3 hPa | 0.0 mm | 0.0 mm/h | wechselhaft |
| 06.09.2026 - 02.35Uhr | 14.2 °C | 12.6 °C | 90 % | 0.0 W/m² | 0.0 km/h | Osten | 0.0 km/h | 1023.2 hPa | 0.0 mm | 0.0 mm/h | wechselhaft |
| 06.09.2026 - 02.40Uhr | 14.2 °C | 12.6 °C | 90 % | 0.0 W/m² | 0.0 km/h | Osten | 0.0 km/h | 1023.3 hPa | 0.0 mm | 0.0 mm/h | wechselhaft |
| 06.09.2026 - 02.45Uhr | 14.2 °C | 12.6 °C | 90 % | 0.0 W/m² | 0.0 km/h | Osten | 0.0 km/h | 1023.3 hPa | 0.0 mm | 0.0 mm/h | wechselhaft |
| 06.09.2026 - 02.50Uhr | 14.2 °C | 12.6 °C | 90 % | 0.0 W/m² | 0.0 km/h | Osten | 0.0 km/h | 1023.2 hPa | 0.0 mm | 0.0 mm/h | wechselhaft |
| 06.09.2026 - 02.55Uhr | 14.3 °C | 12.7 °C | 90 % | 0.0 W/m² | 0.0 km/h | Osten | 0.0 km/h | 1023.2 hPa | 0.0 mm | 0.0 mm/h | wechselhaft |
| 06.09.2026 - 03.00Uhr | 14.3 °C | 12.7 °C | 90 % | 0.0 W/m² | 0.0 km/h | Osten | 0.0 km/h | 1023.2 hPa | 0.0 mm | 0.0 mm/h | wechselhaft |
| 06.09.2026 - 03.05Uhr | 14.3 °C | 12.7 °C | 90 % | 0.0 W/m² | 0.0 km/h | Osten | 0.0 km/h | 1023.3 hPa | 0.0 mm | 0.0 mm/h | wechselhaft |
| 06.09.2026 - 03.10Uhr | 14.3 °C | 12.7 °C | 90 % | 0.0 W/m² | 0.0 km/h | Osten | 0.0 km/h | 1023.3 hPa | 0.0 mm | 0.0 mm/h | wechselhaft |
| 06.09.2026 - 03.15Uhr | 14.2 °C | 12.5 °C | 90 % | 0.0 W/m² | 0.0 km/h | Osten | 0.0 km/h | 1023.4 hPa | 0.0 mm | 0.0 mm/h | wechselhaft |
| 06.09.2026 - 03.20Uhr | 14.3 °C | 12.8 °C | 90 % | 0.0 W/m² | 0.0 km/h | Osten | 0.0 km/h | 1023.4 hPa | 0.0 mm | 0.0 mm/h | wechselhaft |
| 06.09.2026 - 03.25Uhr | 14.3 °C | 12.7 °C | 90 % | 0.0 W/m² | 0.0 km/h | Osten | 0.0 km/h | 1023.4 hPa | 0.0 mm | 0.0 mm/h | wechselhaft |
| 06.09.2026 - 03.30Uhr | 14.1 °C | 12.4 °C | 89 % | 0.0 W/m² | 0.0 km/h | Osten | 0.0 km/h | 1023.4 hPa | 0.0 mm | 0.0 mm/h | wechselhaft |
| 06.09.2026 - 03.35Uhr | 14.1 °C | 12.6 °C | 90 % | 0.0 W/m² | 0.0 km/h | Osten | 0.0 km/h | 1023.4 hPa | 0.0 mm | 0.0 mm/h | wechselhaft |
| 06.09.2026 - 03.40Uhr | 14.2 °C | 12.6 °C | 90 % | 0.0 W/m² | 0.0 km/h | Osten | 0.0 km/h | 1023.5 hPa | 0.0 mm | 0.0 mm/h | wechselhaft |
| 06.09.2026 - 03.45Uhr | 14.0 °C | 12.3 °C | 90 % | 0.0 W/m² | 0.0 km/h | Osten | 0.0 km/h | 1023.4 hPa | 0.0 mm | 0.0 mm/h | wechselhaft |
| 06.09.2026 - 03.50Uhr | 13.7 °C | 12.0 °C | 90 % | 0.0 W/m² | 0.0 km/h | Osten | 0.0 km/h | 1023.4 hPa | 0.0 mm | 0.0 mm/h | wechselhaft |
| 06.09.2026 - 03.55Uhr | 13.6 °C | 11.9 °C | 90 % | 0.0 W/m² | 0.0 km/h | Osten | 0.0 km/h | 1023.4 hPa | 0.0 mm | 0.0 mm/h | wechselhaft |
| 06.09.2026 - 04.00Uhr | 13.2 °C | 11.4 °C | 89 % | 0.0 W/m² | 0.0 km/h | Osten | 0.0 km/h | 1023.4 hPa | 0.0 mm | 0.0 mm/h | wechselhaft |
| 06.09.2026 - 04.05Uhr | 13.1 °C | 11.6 °C | 90 % | 0.0 W/m² | 0.0 km/h | Osten | 0.0 km/h | 1023.5 hPa | 0.0 mm | 0.0 mm/h | wechselhaft |
| 06.09.2026 - 04.10Uhr | 13.5 °C | 12.2 °C | 92 % | 0.0 W/m² | 0.0 km/h | Osten | 0.0 km/h | 1023.5 hPa | 0.0 mm | 0.0 mm/h | wechselhaft |
| 06.09.2026 - 04.15Uhr | 13.9 °C | 12.5 °C | 91 % | 0.0 W/m² | 0.0 km/h | Osten | 0.0 km/h | 1023.5 hPa | 0.0 mm | 0.0 mm/h | wechselhaft |
| 06.09.2026 - 04.20Uhr | 13.8 °C | 12.4 °C | 91 % | 0.0 W/m² | 0.0 km/h | Osten | 0.0 km/h | 1023.5 hPa | 0.0 mm | 0.0 mm/h | wechselhaft |
| 06.09.2026 - 04.25Uhr | 14.0 °C | 12.7 °C | 92 % | 0.0 W/m² | 0.0 km/h | Osten | 0.0 km/h | 1023.6 hPa | 0.0 mm | 0.0 mm/h | wechselhaft |
| 06.09.2026 - 04.30Uhr | 14.1 °C | 12.7 °C | 91 % | 0.0 W/m² | 0.0 km/h | Osten | 0.0 km/h | 1023.6 hPa | 0.0 mm | 0.0 mm/h | wechselhaft |
| 06.09.2026 - 04.35Uhr | 13.9 °C | 12.5 °C | 91 % | 0.0 W/m² | 0.0 km/h | Osten | 0.0 km/h | 1023.6 hPa | 0.0 mm | 0.0 mm/h | wechselhaft |
| 06.09.2026 - 04.40Uhr | 13.7 °C | 12.3 °C | 91 % | 0.0 W/m² | 0.0 km/h | Osten | 0.0 km/h | 1023.5 hPa | 0.0 mm | 0.0 mm/h | wechselhaft |
| 06.09.2026 - 04.45Uhr | 13.7 °C | 12.3 °C | 91 % | 0.0 W/m² | 0.0 km/h | Osten | 0.0 km/h | 1023.6 hPa | 0.0 mm | 0.0 mm/h | wechselhaft |
| 06.09.2026 - 04.50Uhr | 13.6 °C | 12.2 °C | 91 % | 0.0 W/m² | 0.0 km/h | Osten | 0.0 km/h | 1023.7 hPa | 0.0 mm | 0.0 mm/h | wechselhaft |
| 06.09.2026 - 04.55Uhr | 13.4 °C | 12.0 °C | 91 % | 0.0 W/m² | 0.0 km/h | Osten | 0.0 km/h | 1023.7 hPa | 0.0 mm | 0.0 mm/h | wechselhaft |
| 06.09.2026 - 05.00Uhr | 13.4 °C | 12.1 °C | 91 % | 0.0 W/m² | 0.0 km/h | Osten | 0.0 km/h | 1023.7 hPa | 0.0 mm | 0.0 mm/h | wechselhaft |
| 06.09.2026 - 05.05Uhr | 13.6 °C | 12.2 °C | 91 % | 0.0 W/m² | 0.0 km/h | Osten | 0.0 km/h | 1023.7 hPa | 0.0 mm | 0.0 mm/h | wechselhaft |
| 06.09.2026 - 05.10Uhr | 13.5 °C | 12.2 °C | 91 % | 0.0 W/m² | 0.0 km/h | Osten | 0.0 km/h | 1023.7 hPa | 0.0 mm | 0.0 mm/h | wechselhaft |
| 06.09.2026 - 05.15Uhr | 13.2 °C | 11.8 °C | 91 % | 0.0 W/m² | 0.0 km/h | Osten | 0.0 km/h | 1023.7 hPa | 0.0 mm | 0.0 mm/h | wechselhaft |
| 06.09.2026 - 05.20Uhr | 12.9 °C | 11.6 °C | 91 % | 0.0 W/m² | 0.0 km/h | Osten | 0.0 km/h | 1023.7 hPa | 0.0 mm | 0.0 mm/h | wechselhaft |
| 06.09.2026 - 05.25Uhr | 12.8 °C | 11.5 °C | 92 % | 0.0 W/m² | 0.0 km/h | Osten | 0.0 km/h | 1023.7 hPa | 0.0 mm | 0.0 mm/h | wechselhaft |
| 06.09.2026 - 05.30Uhr | 13.0 °C | 11.7 °C | 92 % | 0.0 W/m² | 0.0 km/h | Osten | 0.0 km/h | 1023.6 hPa | 0.0 mm | 0.0 mm/h | wechselhaft |
| 06.09.2026 - 05.35Uhr | 13.3 °C | 12.1 °C | 93 % | 0.0 W/m² | 0.0 km/h | Osten | 0.0 km/h | 1023.6 hPa | 0.0 mm | 0.0 mm/h | wechselhaft |
| 06.09.2026 - 05.40Uhr | 13.2 °C | 11.9 °C | 92 % | 0.0 W/m² | 0.0 km/h | Osten | 0.0 km/h | 1023.6 hPa | 0.0 mm | 0.0 mm/h | wechselhaft |
| 06.09.2026 - 05.45Uhr | 12.9 °C | 11.5 °C | 92 % | 0.0 W/m² | 0.0 km/h | Osten | 0.0 km/h | 1023.6 hPa | 0.0 mm | 0.0 mm/h | wechselhaft |
| 06.09.2026 - 05.50Uhr | 12.9 °C | 11.6 °C | 92 % | 0.0 W/m² | 0.0 km/h | Osten | 0.0 km/h | 1023.5 hPa | 0.0 mm | 0.0 mm/h | wechselhaft |
| 06.09.2026 - 05.55Uhr | 12.8 °C | 11.6 °C | 92 % | 0.0 W/m² | 0.0 km/h | Osten | 0.0 km/h | 1023.5 hPa | 0.0 mm | 0.0 mm/h | wechselhaft |
| 06.09.2026 - 06.00Uhr | 12.7 °C | 11.4 °C | 92 % | 0.0 W/m² | 0.0 km/h | Osten | 0.0 km/h | 1023.5 hPa | 0.0 mm | 0.0 mm/h | wechselhaft |
| 06.09.2026 - 06.05Uhr | 12.7 °C | 11.5 °C | 93 % | 0.0 W/m² | 0.0 km/h | Osten | 0.0 km/h | 1023.5 hPa | 0.0 mm | 0.0 mm/h | wechselhaft |
| 06.09.2026 - 06.10Uhr | 13.0 °C | 12.0 °C | 93 % | 0.0 W/m² | 0.0 km/h | Osten | 0.0 km/h | 1023.4 hPa | 0.0 mm | 0.0 mm/h | wechselhaft |
| 06.09.2026 - 06.15Uhr | 12.9 °C | 11.8 °C | 93 % | 0.0 W/m² | 0.0 km/h | Osten | 0.0 km/h | 1023.4 hPa | 0.0 mm | 0.0 mm/h | wechselhaft |
| 06.09.2026 - 06.20Uhr | 12.7 °C | 11.5 °C | 92 % | 0.0 W/m² | 0.0 km/h | Osten | 0.0 km/h | 1023.3 hPa | 0.0 mm | 0.0 mm/h | wechselhaft |
| 06.09.2026 - 06.25Uhr | 12.7 °C | 11.5 °C | 92 % | 0.0 W/m² | 0.0 km/h | Osten | 0.0 km/h | 1023.3 hPa | 0.0 mm | 0.0 mm/h | wechselhaft |
| 06.09.2026 - 06.30Uhr | 12.7 °C | 11.5 °C | 93 % | 0.0 W/m² | 0.0 km/h | Osten | 0.0 km/h | 1023.3 hPa | 0.0 mm | 0.0 mm/h | wechselhaft |
| 06.09.2026 - 06.35Uhr | 12.4 °C | 11.2 °C | 92 % | 0.0 W/m² | 0.0 km/h | Osten | 0.0 km/h | 1023.3 hPa | 0.0 mm | 0.0 mm/h | wechselhaft |
| 06.09.2026 - 06.40Uhr | 12.0 °C | 10.7 °C | 92 % | 0.0 W/m² | 0.0 km/h | Osten | 0.0 km/h | 1023.4 hPa | 0.0 mm | 0.0 mm/h | wechselhaft |
| 06.09.2026 - 06.45Uhr | 12.2 °C | 11.1 °C | 93 % | 0.0 W/m² | 0.0 km/h | Nord-NW | 0.0 km/h | 1023.5 hPa | 0.0 mm | 0.0 mm/h | wechselhaft |
| 06.09.2026 - 06.50Uhr | 12.2 °C | 11.0 °C | 93 % | 0.0 W/m² | 0.0 km/h | Nord-NW | 0.0 km/h | 1023.6 hPa | 0.0 mm | 0.0 mm/h | wechselhaft |
| 06.09.2026 - 06.55Uhr | 12.2 °C | 11.0 °C | 93 % | 5.0 W/m² | 3.5 km/h | Westen | 4.7 km/h | 1023.6 hPa | 0.0 mm | 0.0 mm/h | wechselhaft |
| 06.09.2026 - 07.00Uhr | 12.2 °C | 11.0 °C | 93 % | 7.0 W/m² | 3.2 km/h | Westen | 4.7 km/h | 1023.7 hPa | 0.0 mm | 0.0 mm/h | wechselhaft |
| 06.09.2026 - 07.05Uhr | 12.0 °C | 10.9 °C | 93 % | 9.0 W/m² | 3.9 km/h | West-SW | 4.7 km/h | 1023.8 hPa | 0.0 mm | 0.0 mm/h | wechselhaft |
| 06.09.2026 - 07.10Uhr | 12.1 °C | 10.9 °C | 93 % | 14.0 W/m² | 4.4 km/h | West-SW | 6.5 km/h | 1023.8 hPa | 0.0 mm | 0.0 mm/h | wechselhaft |
| 06.09.2026 - 07.15Uhr | 12.4 °C | 11.4 °C | 94 % | 19.0 W/m² | 5.4 km/h | Westen | 6.5 km/h | 1023.9 hPa | 0.0 mm | 0.0 mm/h | wechselhaft |
| 06.09.2026 - 07.20Uhr | 12.4 °C | 11.3 °C | 93 % | 28.0 W/m² | 5.0 km/h | Westen | 6.5 km/h | 1023.9 hPa | 0.0 mm | 0.0 mm/h | wechselhaft |
| 06.09.2026 - 07.25Uhr | 12.6 °C | 11.5 °C | 93 % | 40.0 W/m² | 3.0 km/h | Westen | 4.7 km/h | 1023.9 hPa | 0.0 mm | 0.0 mm/h | wechselhaft |
| 06.09.2026 - 07.30Uhr | 12.6 °C | 11.6 °C | 94 % | 47.0 W/m² | 1.5 km/h | Westen | 3.2 km/h | 1023.9 hPa | 0.0 mm | 0.0 mm/h | wechselhaft |
| 06.09.2026 - 07.35Uhr | 12.8 °C | 11.9 °C | 94 % | 58.0 W/m² | 0.0 km/h | Süd-SW | 0.0 km/h | 1023.9 hPa | 0.0 mm | 0.0 mm/h | wechselhaft |
| 06.09.2026 - 07.40Uhr | 13.0 °C | 12.0 °C | 94 % | 70.0 W/m² | 0.0 km/h | Süd-SO | 0.0 km/h | 1023.9 hPa | 0.0 mm | 0.0 mm/h | wechselhaft |
| 06.09.2026 - 07.45Uhr | 13.0 °C | 11.9 °C | 93 % | 81.0 W/m² | 0.0 km/h | Süd-SO | 0.0 km/h | 1023.9 hPa | 0.0 mm | 0.0 mm/h | wechselhaft |
| 06.09.2026 - 07.50Uhr | 13.1 °C | 12.0 °C | 93 % | 95.0 W/m² | 0.0 km/h | Süd-SO | 0.0 km/h | 1024.0 hPa | 0.0 mm | 0.0 mm/h | wechselhaft |
| 06.09.2026 - 07.55Uhr | 13.3 °C | 12.2 °C | 93 % | 102.0 W/m² | 0.0 km/h | Süd-SO | 0.0 km/h | 1024.0 hPa | 0.0 mm | 0.0 mm/h | wechselhaft |
| 06.09.2026 - 08.00Uhr | 13.5 °C | 12.2 °C | 92 % | 104.0 W/m² | 0.0 km/h | Süd-SO | 0.0 km/h | 1024.0 hPa | 0.0 mm | 0.0 mm/h | wechselhaft |
| 06.09.2026 - 08.05Uhr | 13.7 °C | 12.3 °C | 92 % | 114.0 W/m² | 0.0 km/h | Süd-SO | 0.0 km/h | 1024.0 hPa | 0.0 mm | 0.0 mm/h | wechselhaft |
| 06.09.2026 - 08.10Uhr | 13.8 °C | 12.4 °C | 91 % | 142.0 W/m² | 0.0 km/h | Süden | 0.0 km/h | 1024.1 hPa | 0.0 mm | 0.0 mm/h | wechselhaft |
| 06.09.2026 - 08.15Uhr | 14.0 °C | 12.5 °C | 90 % | 169.0 W/m² | 0.0 km/h | Süden | 0.0 km/h | 1024.1 hPa | 0.0 mm | 0.0 mm/h | wechselhaft |
| 06.09.2026 - 08.20Uhr | 14.2 °C | 12.5 °C | 89 % | 179.0 W/m² | 0.0 km/h | Süden | 0.0 km/h | 1024.1 hPa | 0.0 mm | 0.0 mm/h | wechselhaft |
| 06.09.2026 - 08.25Uhr | 14.4 °C | 12.4 °C | 88 % | 195.0 W/m² | 0.0 km/h | Süden | 0.0 km/h | 1024.2 hPa | 0.0 mm | 0.0 mm/h | wechselhaft |
| 06.09.2026 - 08.30Uhr | 14.7 °C | 12.1 °C | 84 % | 211.0 W/m² | 0.0 km/h | Süden | 0.0 km/h | 1024.1 hPa | 0.0 mm | 0.0 mm/h | wechselhaft |
| 06.09.2026 - 08.35Uhr | 15.1 °C | 11.8 °C | 81 % | 223.0 W/m² | 0.0 km/h | Süden | 0.0 km/h | 1024.1 hPa | 0.0 mm | 0.0 mm/h | wechselhaft |
| 06.09.2026 - 08.40Uhr | 15.4 °C | 11.5 °C | 78 % | 237.0 W/m² | 1.8 km/h | Ost-NO | 6.5 km/h | 1024.1 hPa | 0.0 mm | 0.0 mm/h | wechselhaft |
| 06.09.2026 - 08.45Uhr | 15.6 °C | 11.3 °C | 76 % | 244.0 W/m² | 3.3 km/h | Osten | 7.9 km/h | 1024.1 hPa | 0.0 mm | 0.0 mm/h | wechselhaft |
| 06.09.2026 - 08.50Uhr | 15.7 °C | 11.2 °C | 74 % | 244.0 W/m² | 4.2 km/h | Nordosten | 9.7 km/h | 1024.1 hPa | 0.0 mm | 0.0 mm/h | wechselhaft |
| 06.09.2026 - 08.55Uhr | 15.9 °C | 11.1 °C | 73 % | 227.0 W/m² | 4.8 km/h | Osten | 9.7 km/h | 1024.0 hPa | 0.0 mm | 0.0 mm/h | wechselhaft |
| 06.09.2026 - 09.00Uhr | 16.2 °C | 11.4 °C | 73 % | 272.0 W/m² | 5.0 km/h | Osten | 7.9 km/h | 1024.0 hPa | 0.0 mm | 0.0 mm/h | wechselhaft |
| 06.09.2026 - 09.05Uhr | 16.3 °C | 11.5 °C | 73 % | 299.0 W/m² | 3.6 km/h | Ost-SO | 6.5 km/h | 1024.0 hPa | 0.0 mm | 0.0 mm/h | wechselhaft |
| 06.09.2026 - 09.10Uhr | 16.5 °C | 11.4 °C | 72 % | 318.0 W/m² | 5.0 km/h | Osten | 9.7 km/h | 1024.0 hPa | 0.0 mm | 0.0 mm/h | wechselhaft |
| 06.09.2026 - 09.15Uhr | 16.8 °C | 11.6 °C | 72 % | 336.0 W/m² | 5.0 km/h | Osten | 11.2 km/h | 1024.0 hPa | 0.0 mm | 0.0 mm/h | wechselhaft |
| 06.09.2026 - 09.20Uhr | 16.9 °C | 11.4 °C | 70 % | 357.0 W/m² | 6.0 km/h | Osten | 9.7 km/h | 1024.1 hPa | 0.0 mm | 0.0 mm/h | wechselhaft |
| 06.09.2026 - 09.25Uhr | 17.1 °C | 11.3 °C | 68 % | 376.0 W/m² | 7.0 km/h | Osten | 11.2 km/h | 1024.1 hPa | 0.0 mm | 0.0 mm/h | wechselhaft |
| 06.09.2026 - 09.30Uhr | 17.3 °C | 11.2 °C | 67 % | 387.0 W/m² | 5.8 km/h | Ost-NO | 9.7 km/h | 1024.2 hPa | 0.0 mm | 0.0 mm/h | wechselhaft |
| 06.09.2026 - 09.35Uhr | 17.5 °C | 11.0 °C | 66 % | 394.0 W/m² | 6.8 km/h | Ost-NO | 11.2 km/h | 1024.2 hPa | 0.0 mm | 0.0 mm/h | wechselhaft |
| 06.09.2026 - 09.40Uhr | 17.6 °C | 11.2 °C | 66 % | 394.0 W/m² | 7.3 km/h | Osten | 11.2 km/h | 1024.2 hPa | 0.0 mm | 0.0 mm/h | wechselhaft |
| 06.09.2026 - 09.45Uhr | 17.8 °C | 11.2 °C | 65 % | 390.0 W/m² | 6.8 km/h | Ost-NO | 11.2 km/h | 1024.0 hPa | 0.0 mm | 0.0 mm/h | wechselhaft |
| 06.09.2026 - 09.50Uhr | 18.1 °C | 11.3 °C | 65 % | 383.0 W/m² | 7.8 km/h | Osten | 11.2 km/h | 1024.0 hPa | 0.0 mm | 0.0 mm/h | wechselhaft |
| 06.09.2026 - 09.55Uhr | 18.2 °C | 11.4 °C | 64 % | 374.0 W/m² | 5.4 km/h | Ost-NO | 11.2 km/h | 1024.1 hPa | 0.0 mm | 0.0 mm/h | wechselhaft |
| 06.09.2026 - 10.00Uhr | 18.4 °C | 11.3 °C | 64 % | 369.0 W/m² | 5.9 km/h | Osten | 11.2 km/h | 1024.1 hPa | 0.0 mm | 0.0 mm/h | wechselhaft |
| 06.09.2026 - 10.05Uhr | 18.6 °C | 11.6 °C | 64 % | 353.0 W/m² | 6.5 km/h | Osten | 11.2 km/h | 1024.0 hPa | 0.0 mm | 0.0 mm/h | wechselhaft |
| 06.09.2026 - 10.10Uhr | 18.8 °C | 11.6 °C | 63 % | 327.0 W/m² | 5.2 km/h | Osten | 9.7 km/h | 1024.0 hPa | 0.0 mm | 0.0 mm/h | wechselhaft |
| 06.09.2026 - 10.15Uhr | 19.0 °C | 11.7 °C | 63 % | 341.0 W/m² | 7.3 km/h | Osten | 11.2 km/h | 1023.9 hPa | 0.0 mm | 0.0 mm/h | wechselhaft |
| 06.09.2026 - 10.20Uhr | 19.1 °C | 11.7 °C | 62 % | 415.0 W/m² | 7.3 km/h | Osten | 17.6 km/h | 1023.9 hPa | 0.0 mm | 0.0 mm/h | wechselhaft |
| 06.09.2026 - 10.25Uhr | 19.3 °C | 11.6 °C | 61 % | 501.0 W/m² | 5.6 km/h | Ost-NO | 9.7 km/h | 1023.9 hPa | 0.0 mm | 0.0 mm/h | wechselhaft |
| 06.09.2026 - 10.30Uhr | 19.6 °C | 11.9 °C | 61 % | 541.0 W/m² | 8.4 km/h | Ost-NO | 11.2 km/h | 1023.9 hPa | 0.0 mm | 0.0 mm/h | wechselhaft |
| 06.09.2026 - 10.35Uhr | 19.6 °C | 11.8 °C | 60 % | 550.0 W/m² | 8.4 km/h | Osten | 14.4 km/h | 1023.9 hPa | 0.0 mm | 0.0 mm/h | wechselhaft |
| 06.09.2026 - 10.40Uhr | 19.8 °C | 11.6 °C | 59 % | 563.0 W/m² | 8.4 km/h | Osten | 14.4 km/h | 1023.9 hPa | 0.0 mm | 0.0 mm/h | wechselhaft |
| 06.09.2026 - 10.45Uhr | 20.0 °C | 11.8 °C | 59 % | 571.0 W/m² | 8.4 km/h | Osten | 17.6 km/h | 1023.9 hPa | 0.0 mm | 0.0 mm/h | wechselhaft |
| 06.09.2026 - 10.50Uhr | 20.1 °C | 12.0 °C | 60 % | 584.0 W/m² | 5.9 km/h | Osten | 9.7 km/h | 1023.9 hPa | 0.0 mm | 0.0 mm/h | wechselhaft |
| 06.09.2026 - 10.55Uhr | 20.0 °C | 11.9 °C | 60 % | 596.0 W/m² | 5.6 km/h | Osten | 11.2 km/h | 1023.9 hPa | 0.0 mm | 0.0 mm/h | wechselhaft |
| 06.09.2026 - 11.00Uhr | 20.2 °C | 12.2 °C | 60 % | 603.0 W/m² | 5.9 km/h | Ost-NO | 13.0 km/h | 1023.9 hPa | 0.0 mm | 0.0 mm/h | wechselhaft |
| 06.09.2026 - 11.05Uhr | 20.3 °C | 12.0 °C | 59 % | 612.0 W/m² | 7.8 km/h | Ost-NO | 11.2 km/h | 1023.8 hPa | 0.0 mm | 0.0 mm/h | wechselhaft |
| 06.09.2026 - 11.10Uhr | 20.4 °C | 12.0 °C | 59 % | 619.0 W/m² | 5.5 km/h | Ost-NO | 13.0 km/h | 1023.7 hPa | 0.0 mm | 0.0 mm/h | wechselhaft |
| 06.09.2026 - 11.15Uhr | 20.8 °C | 12.5 °C | 59 % | 629.0 W/m² | 7.3 km/h | Osten | 13.0 km/h | 1023.7 hPa | 0.0 mm | 0.0 mm/h | wechselhaft |
| 06.09.2026 - 11.20Uhr | 21.2 °C | 12.8 °C | 58 % | 638.0 W/m² | 7.4 km/h | Osten | 11.2 km/h | 1023.7 hPa | 0.0 mm | 0.0 mm/h | wechselhaft |
| 06.09.2026 - 11.25Uhr | 21.3 °C | 12.6 °C | 58 % | 647.0 W/m² | 8.3 km/h | Osten | 11.2 km/h | 1023.6 hPa | 0.0 mm | 0.0 mm/h | wechselhaft |
| 06.09.2026 - 11.30Uhr | 21.5 °C | 12.8 °C | 58 % | 656.0 W/m² | 8.2 km/h | Osten | 13.0 km/h | 1023.6 hPa | 0.0 mm | 0.0 mm/h | wechselhaft |
| 06.09.2026 - 11.35Uhr | 21.6 °C | 12.9 °C | 58 % | 664.0 W/m² | 6.0 km/h | Ost-NO | 11.2 km/h | 1023.6 hPa | 0.0 mm | 0.0 mm/h | wechselhaft |
| 06.09.2026 - 11.40Uhr | 21.6 °C | 13.0 °C | 58 % | 671.0 W/m² | 9.5 km/h | Osten | 17.6 km/h | 1023.6 hPa | 0.0 mm | 0.0 mm/h | wechselhaft |
| 06.09.2026 - 11.45Uhr | 21.7 °C | 13.1 °C | 58 % | 675.0 W/m² | 3.5 km/h | Ost-NO | 11.2 km/h | 1023.6 hPa | 0.0 mm | 0.0 mm/h | wechselhaft |
| 06.09.2026 - 11.50Uhr | 21.7 °C | 13.2 °C | 59 % | 680.0 W/m² | 6.3 km/h | Ost-NO | 16.2 km/h | 1023.5 hPa | 0.0 mm | 0.0 mm/h | wechselhaft |
| 06.09.2026 - 11.55Uhr | 22.2 °C | 13.5 °C | 58 % | 689.0 W/m² | 5.7 km/h | Ost-NO | 13.0 km/h | 1023.5 hPa | 0.0 mm | 0.0 mm/h | wechselhaft |
| 06.09.2026 - 12.00Uhr | 22.5 °C | 13.6 °C | 57 % | 694.0 W/m² | 5.9 km/h | Ost-NO | 13.0 km/h | 1023.5 hPa | 0.0 mm | 0.0 mm/h | wechselhaft |
| 06.09.2026 - 12.05Uhr | 22.6 °C | 13.9 °C | 58 % | 701.0 W/m² | 7.8 km/h | Osten | 19.4 km/h | 1023.4 hPa | 0.0 mm | 0.0 mm/h | wechselhaft |
| 06.09.2026 - 12.10Uhr | 22.8 °C | 13.8 °C | 57 % | 708.0 W/m² | 7.3 km/h | Ost-NO | 17.6 km/h | 1023.3 hPa | 0.0 mm | 0.0 mm/h | wechselhaft |
| 06.09.2026 - 12.15Uhr | 22.6 °C | 13.8 °C | 58 % | 712.0 W/m² | 6.9 km/h | Nordosten | 16.2 km/h | 1023.3 hPa | 0.0 mm | 0.0 mm/h | wechselhaft |
| 06.09.2026 - 12.20Uhr | 22.6 °C | 13.8 °C | 58 % | 714.0 W/m² | 8.2 km/h | Osten | 16.2 km/h | 1023.3 hPa | 0.0 mm | 0.0 mm/h | wechselhaft |
| 06.09.2026 - 12.25Uhr | 22.8 °C | 13.8 °C | 57 % | 719.0 W/m² | 8.9 km/h | Ost-NO | 14.4 km/h | 1023.3 hPa | 0.0 mm | 0.0 mm/h | wechselhaft |
| 06.09.2026 - 12.30Uhr | 22.9 °C | 13.8 °C | 56 % | 722.0 W/m² | 8.4 km/h | Ost-NO | 17.6 km/h | 1023.2 hPa | 0.0 mm | 0.0 mm/h | wechselhaft |
| 06.09.2026 - 12.35Uhr | 23.0 °C | 14.1 °C | 57 % | 726.0 W/m² | 10.2 km/h | Ost-NO | 20.9 km/h | 1023.1 hPa | 0.0 mm | 0.0 mm/h | wechselhaft |
| 06.09.2026 - 12.40Uhr | 23.4 °C | 14.2 °C | 57 % | 731.0 W/m² | 6.8 km/h | Osten | 19.4 km/h | 1023.1 hPa | 0.0 mm | 0.0 mm/h | wechselhaft |
| 06.09.2026 - 12.45Uhr | 23.5 °C | 14.1 °C | 56 % | 735.0 W/m² | 10.3 km/h | Ost-NO | 19.4 km/h | 1023.1 hPa | 0.0 mm | 0.0 mm/h | wechselhaft |
| 06.09.2026 - 12.50Uhr | 23.6 °C | 14.3 °C | 56 % | 737.0 W/m² | 7.0 km/h | Osten | 11.2 km/h | 1023.0 hPa | 0.0 mm | 0.0 mm/h | wechselhaft |
| 06.09.2026 - 12.55Uhr | 23.9 °C | 14.4 °C | 56 % | 738.0 W/m² | 7.6 km/h | Osten | 17.6 km/h | 1023.0 hPa | 0.0 mm | 0.0 mm/h | wechselhaft |
| 06.09.2026 - 13.00Uhr | 24.0 °C | 14.1 °C | 54 % | 742.0 W/m² | 9.0 km/h | Osten | 19.4 km/h | 1023.0 hPa | 0.0 mm | 0.0 mm/h | wechselhaft |
| 06.09.2026 - 13.05Uhr | 23.9 °C | 14.1 °C | 55 % | 745.0 W/m² | 11.3 km/h | Ost-NO | 17.6 km/h | 1023.0 hPa | 0.0 mm | 0.0 mm/h | wechselhaft |
| 06.09.2026 - 13.10Uhr | 24.1 °C | 14.6 °C | 55 % | 744.0 W/m² | 7.9 km/h | Osten | 17.6 km/h | 1023.0 hPa | 0.0 mm | 0.0 mm/h | wechselhaft |
| 06.09.2026 - 13.15Uhr | 24.0 °C | 14.2 °C | 54 % | 745.0 W/m² | 6.2 km/h | Nordosten | 11.2 km/h | 1023.0 hPa | 0.0 mm | 0.0 mm/h | wechselhaft |
| 06.09.2026 - 13.20Uhr | 24.0 °C | 14.5 °C | 55 % | 747.0 W/m² | 7.3 km/h | Ost-NO | 17.6 km/h | 1022.9 hPa | 0.0 mm | 0.0 mm/h | wechselhaft |
| 06.09.2026 - 13.25Uhr | 24.4 °C | 14.6 °C | 54 % | 749.0 W/m² | 6.8 km/h | Ost-NO | 13.0 km/h | 1022.9 hPa | 0.0 mm | 0.0 mm/h | wechselhaft |
| 06.09.2026 - 13.30Uhr | 24.5 °C | 14.8 °C | 55 % | 749.0 W/m² | 9.0 km/h | Ost-NO | 19.4 km/h | 1022.9 hPa | 0.0 mm | 0.0 mm/h | wechselhaft |
| 06.09.2026 - 13.35Uhr | 24.9 °C | 14.7 °C | 53 % | 752.0 W/m² | 10.5 km/h | Ost-NO | 20.9 km/h | 1022.9 hPa | 0.0 mm | 0.0 mm/h | wechselhaft |
| 06.09.2026 - 13.40Uhr | 24.7 °C | 14.4 °C | 53 % | 754.0 W/m² | 9.9 km/h | Osten | 19.4 km/h | 1022.9 hPa | 0.0 mm | 0.0 mm/h | wechselhaft |
| 06.09.2026 - 13.45Uhr | 24.8 °C | 14.7 °C | 54 % | 756.0 W/m² | 5.7 km/h | Ost-NO | 11.2 km/h | 1022.8 hPa | 0.0 mm | 0.0 mm/h | wechselhaft |
| 06.09.2026 - 13.50Uhr | 25.3 °C | 15.0 °C | 53 % | 765.0 W/m² | 9.2 km/h | Osten | 17.6 km/h | 1022.7 hPa | 0.0 mm | 0.0 mm/h | wechselhaft |
| 06.09.2026 - 13.55Uhr | 25.3 °C | 14.8 °C | 53 % | 773.0 W/m² | 8.3 km/h | Ost-NO | 19.4 km/h | 1022.6 hPa | 0.0 mm | 0.0 mm/h | wechselhaft |
| 06.09.2026 - 14.00Uhr | 25.1 °C | 14.7 °C | 53 % | 784.0 W/m² | 7.1 km/h | Ost-NO | 20.9 km/h | 1022.6 hPa | 0.0 mm | 0.0 mm/h | wechselhaft |
| 06.09.2026 - 14.05Uhr | 25.3 °C | 14.7 °C | 52 % | 751.0 W/m² | 8.1 km/h | Ost-NO | 20.9 km/h | 1022.6 hPa | 0.0 mm | 0.0 mm/h | wechselhaft |
| 06.09.2026 - 14.10Uhr | 25.1 °C | 14.8 °C | 53 % | 677.0 W/m² | 4.9 km/h | Nordosten | 13.0 km/h | 1022.6 hPa | 0.0 mm | 0.0 mm/h | wechselhaft |
| 06.09.2026 - 14.15Uhr | 25.3 °C | 14.9 °C | 53 % | 766.0 W/m² | 8.9 km/h | Ost-NO | 19.4 km/h | 1022.5 hPa | 0.0 mm | 0.0 mm/h | wechselhaft |
| 06.09.2026 - 14.20Uhr | 25.7 °C | 15.0 °C | 52 % | 773.0 W/m² | 9.7 km/h | Osten | 19.4 km/h | 1022.4 hPa | 0.0 mm | 0.0 mm/h | wechselhaft |
| 06.09.2026 - 14.25Uhr | 25.5 °C | 14.8 °C | 52 % | 701.0 W/m² | 10.0 km/h | Osten | 17.6 km/h | 1022.4 hPa | 0.0 mm | 0.0 mm/h | wechselhaft |
| 06.09.2026 - 14.30Uhr | 25.7 °C | 15.2 °C | 52 % | 756.0 W/m² | 7.1 km/h | Ost-SO | 14.4 km/h | 1022.4 hPa | 0.0 mm | 0.0 mm/h | wechselhaft |
| 06.09.2026 - 14.35Uhr | 25.9 °C | 15.0 °C | 51 % | 765.0 W/m² | 6.6 km/h | Ost-NO | 14.4 km/h | 1022.3 hPa | 0.0 mm | 0.0 mm/h | wechselhaft |
| 06.09.2026 - 14.40Uhr | 25.8 °C | 15.1 °C | 52 % | 694.0 W/m² | 7.8 km/h | Ost-NO | 17.6 km/h | 1022.3 hPa | 0.0 mm | 0.0 mm/h | wechselhaft |
| 06.09.2026 - 14.45Uhr | 25.8 °C | 14.9 °C | 51 % | 749.0 W/m² | 10.6 km/h | Ost-NO | 19.4 km/h | 1022.2 hPa | 0.0 mm | 0.0 mm/h | wechselhaft |
| 06.09.2026 - 14.50Uhr | 25.6 °C | 14.6 °C | 51 % | 738.0 W/m² | 11.7 km/h | Ost-NO | 19.4 km/h | 1022.1 hPa | 0.0 mm | 0.0 mm/h | wechselhaft |
| 06.09.2026 - 14.55Uhr | 25.8 °C | 14.9 °C | 51 % | 724.0 W/m² | 6.4 km/h | Ost-NO | 20.9 km/h | 1022.0 hPa | 0.0 mm | 0.0 mm/h | wechselhaft |
| 06.09.2026 - 15.00Uhr | 25.8 °C | 14.7 °C | 50 % | 707.0 W/m² | 10.1 km/h | Nordosten | 20.9 km/h | 1022.0 hPa | 0.0 mm | 0.0 mm/h | wechselhaft |
| 06.09.2026 - 15.05Uhr | 25.7 °C | 14.8 °C | 51 % | 728.0 W/m² | 12.0 km/h | Ost-NO | 20.9 km/h | 1022.0 hPa | 0.0 mm | 0.0 mm/h | wechselhaft |
| 06.09.2026 - 15.10Uhr | 25.9 °C | 14.6 °C | 50 % | 717.0 W/m² | 13.9 km/h | Nordosten | 20.9 km/h | 1021.9 hPa | 0.0 mm | 0.0 mm/h | wechselhaft |
| 06.09.2026 - 15.15Uhr | 25.8 °C | 14.6 °C | 50 % | 694.0 W/m² | 9.0 km/h | Ost-NO | 19.4 km/h | 1021.9 hPa | 0.0 mm | 0.0 mm/h | wechselhaft |
| 06.09.2026 - 15.20Uhr | 26.2 °C | 14.7 °C | 49 % | 679.0 W/m² | 13.2 km/h | Ost-NO | 22.7 km/h | 1021.9 hPa | 0.0 mm | 0.0 mm/h | wechselhaft |
| 06.09.2026 - 15.25Uhr | 26.0 °C | 14.4 °C | 49 % | 663.0 W/m² | 5.8 km/h | Nordosten | 13.0 km/h | 1021.7 hPa | 0.0 mm | 0.0 mm/h | wechselhaft |
| 06.09.2026 - 15.30Uhr | 26.2 °C | 14.7 °C | 49 % | 650.0 W/m² | 8.7 km/h | Osten | 17.6 km/h | 1021.7 hPa | 0.0 mm | 0.0 mm/h | wechselhaft |
| 06.09.2026 - 15.35Uhr | 26.5 °C | 14.8 °C | 49 % | 638.0 W/m² | 10.1 km/h | Ost-NO | 19.4 km/h | 1021.7 hPa | 0.0 mm | 0.0 mm/h | wechselhaft |
| 06.09.2026 - 15.40Uhr | 26.6 °C | 14.8 °C | 49 % | 629.0 W/m² | 7.5 km/h | Osten | 17.6 km/h | 1021.7 hPa | 0.0 mm | 0.0 mm/h | wechselhaft |
| 06.09.2026 - 15.45Uhr | 26.7 °C | 14.7 °C | 47 % | 619.0 W/m² | 9.2 km/h | Ost-NO | 16.2 km/h | 1021.6 hPa | 0.0 mm | 0.0 mm/h | wechselhaft |
| 06.09.2026 - 15.50Uhr | 26.6 °C | 14.8 °C | 48 % | 608.0 W/m² | 7.7 km/h | Osten | 13.0 km/h | 1021.5 hPa | 0.0 mm | 0.0 mm/h | wechselhaft |
| 06.09.2026 - 15.55Uhr | 26.7 °C | 14.7 °C | 48 % | 598.0 W/m² | 8.3 km/h | Ost-NO | 19.4 km/h | 1021.5 hPa | 0.0 mm | 0.0 mm/h | wechselhaft |
| 06.09.2026 - 16.00Uhr | 27.0 °C | 15.0 °C | 48 % | 591.0 W/m² | 11.8 km/h | Osten | 20.9 km/h | 1021.4 hPa | 0.0 mm | 0.0 mm/h | wechselhaft |
| 06.09.2026 - 16.05Uhr | 27.0 °C | 14.6 °C | 47 % | 582.0 W/m² | 9.2 km/h | Osten | 20.9 km/h | 1021.4 hPa | 0.0 mm | 0.0 mm/h | wechselhaft |
| 06.09.2026 - 16.10Uhr | 26.9 °C | 14.8 °C | 47 % | 570.0 W/m² | 7.9 km/h | Osten | 14.4 km/h | 1021.4 hPa | 0.0 mm | 0.0 mm/h | wechselhaft |
| 06.09.2026 - 16.15Uhr | 26.9 °C | 14.7 °C | 47 % | 561.0 W/m² | 7.9 km/h | Osten | 14.4 km/h | 1021.4 hPa | 0.0 mm | 0.0 mm/h | wechselhaft |
| 06.09.2026 - 16.20Uhr | 26.7 °C | 14.7 °C | 48 % | 548.0 W/m² | 10.1 km/h | Osten | 19.4 km/h | 1021.4 hPa | 0.0 mm | 0.0 mm/h | wechselhaft |
| 06.09.2026 - 16.25Uhr | 26.9 °C | 14.9 °C | 48 % | 536.0 W/m² | 9.5 km/h | Osten | 16.2 km/h | 1021.3 hPa | 0.0 mm | 0.0 mm/h | wechselhaft |
| 06.09.2026 - 16.30Uhr | 27.1 °C | 14.9 °C | 47 % | 534.0 W/m² | 6.9 km/h | Osten | 13.0 km/h | 1021.3 hPa | 0.0 mm | 0.0 mm/h | wechselhaft |
| 06.09.2026 - 16.35Uhr | 27.1 °C | 14.7 °C | 47 % | 519.0 W/m² | 4.7 km/h | Südosten | 11.2 km/h | 1021.2 hPa | 0.0 mm | 0.0 mm/h | wechselhaft |
| 06.09.2026 - 16.40Uhr | 26.8 °C | 14.6 °C | 47 % | 517.0 W/m² | 6.7 km/h | Südosten | 11.2 km/h | 1021.2 hPa | 0.0 mm | 0.0 mm/h | wechselhaft |
| 06.09.2026 - 16.45Uhr | 26.8 °C | 14.6 °C | 47 % | 487.0 W/m² | 5.5 km/h | Ost-SO | 9.7 km/h | 1021.2 hPa | 0.0 mm | 0.0 mm/h | wechselhaft |
| 06.09.2026 - 16.50Uhr | 26.8 °C | 14.5 °C | 47 % | 466.0 W/m² | 7.1 km/h | Südosten | 13.0 km/h | 1021.2 hPa | 0.0 mm | 0.0 mm/h | wechselhaft |
| 06.09.2026 - 16.55Uhr | 26.8 °C | 14.7 °C | 47 % | 450.0 W/m² | 8.4 km/h | Ost-SO | 14.4 km/h | 1021.2 hPa | 0.0 mm | 0.0 mm/h | wechselhaft |